Temperature
12 11 11 11 11 12 12 12 12 12 12 13 13 13 13 13 13 13 14 14 14 14 14 14 15 15 15 15 15 15 15 15 15 15 15 16 16 16 16 16 15 15 15
12 11 11 11 11 11 11 12 12 12 12 12 12 13 13 13 13 13 13 13 13 14 14 14 14 14 15 15 15 15 15 15 15 15 15 15 15 15 15 15 15 15 15
12 11 11 11 11 11 11 11 11 12 12 12 12 12 12 13 13 13 13 13 13 13 13 13 14 14 14 14 14 14 15 14 14 15 15 15 15 15 14 14 14 14 14
12 11 11 11 11 11 11 11 11 11 11 12 12 12 12 12 12 12 12 13 13 13 13 13 13 13 13 14 14 14 14 14 14 14 14 14 14 14 14 14 14 13 13
12 12 11 11 11 11 10 10 11 11 11 11 11 11 12 12 12 12 12 12 12 12 12 12 12 13 13 13 13 13 14 14 14 14 14 14 13 13 13 13 13 13 13
12 12 11 11 11 10 10 10 10 10 10 10 10 11 11 11 11 11 12 12 12 12 12 12 12 12 12 13 13 13 13 13 13 13 13 13 13 13 13 13 13 13 12
12 12 11 11 11 10 10 10 10 10 10 10 10 10 10 11 11 11 11 11 12 12 12 12 12 12 12 12 12 12 13 13 13 13 13 13 13 13 13 13 13 13 13
12 12 11 11 10 10 10 10 10 9 9 9 9 9 10 10 10 10 11 11 11 11 11 11 11 12 12 12 12 12 12 12 13 13 13 13 13 13 13 13 13 12 12
12 12 11 11 10 10 10 10 9 9 9 9 9 9 9 9 10 10 10 10 11 11 11 11 11 12 12 12 12 12 12 12 12 13 13 13 13 13 13 13 12 12 12
12 11 11 11 10 10 10 10 9 9 9 9 9 9 9 9 9 9 10 10 10 11 11 11 11 11 11 12 12 12 12 12 12 12 13 13 13 13 13 13 13 12 12
12 12 11 11 11 10 10 10 10 9 9 9 9 9 9 9 9 9 9 10 10 10 10 11 11 11 11 11 12 12 12 12 12 12 13 13 13 12 12 12 12 13 13
12 12 11 11 11 10 10 10 10 10 10 9 9 9 9 9 9 9 9 10 10 10 10 11 11 11 11 11 11 12 12 12 12 12 12 12 12 12 12 12 12 12 12
13 12 12 11 11 11 10 10 10 10 10 10 9 9 9 9 9 9 9 9 10 10 10 10 11 11 11 11 11 11 12 12 12 12 12 12 12 12 12 12 11 11 11
13 13 12 12 11 11 11 10 10 10 10 10 10 9 9 9 9 9 9 9 10 10 10 11 11 11 11 11 11 11 11 11 12 12 12 12 12 12 11 11 11 11 11
14 13 13 12 12 11 11 11 10 10 10 10 10 10 9 9 9 9 9 9 10 10 10 11 11 11 11 11 11 11 11 11 11 12 12 12 11 11 11 11 11 11 11
14 14 13 13 12 12 11 11 11 10 10 10 10 10 10 9 9 9 9 10 10 10 10 11 11 11 11 11 11 11 11 11 11 11 11 11 11 11 11 11 11 11 11
15 14 13 13 13 12 12 11 11 11 11 10 10 10 10 10 9 9 9 10 10 10 10 11 11 11 11 11 11 11 11 11 11 11 11 11 11 11 11 11 10 10 10
15 14 14 13 13 13 12 12 11 11 11 11 11 10 10 10 10 10 10 10 10 10 10 10 11 11 11 11 11 11 11 11 11 11 11 11 11 11 11 10 10 10 10
15 15 14 14 13 13 12 12 12 12 11 11 11 11 10 10 10 10 10 10 10 10 10 10 11 11 11 11 11 11 11 11 11 11 11 11 11 10 10 10 10 9 9
15 15 14 14 13 13 13 12 12 12 12 12 11 11 11 11 10 10 10 10 10 10 10 10 11 11 11 11 11 11 11 11 11 11 11 10 10 10 10 10 10 9 9
16 15 14 14 14 13 13 13 13 12 12 12 12 12 11 11 11 11 11 10 10 10 10 10 10 10 11 11 11 11 11 11 11 10 10 10 10 10 10 10 9 9 9
16 15 15 14 14 13 13 13 13 13 13 12 12 12 12 11 11 11 11 11 11 10 10 10 10 10 10 10 10 11 11 11 10 10 10 10 10 10 9 9 9 9 9
16 15 15 14 14 14 13 13 13 13 13 13 13 12 12 12 12 11 11 11 11 11 11 11 11 11 10 10 10 10 10 10 10 10 10 10 10 9 9 9 9 9 8
16 15 15 15 14 14 14 13 13 13 13 13 13 13 12 12 12 12 12 11 11 11 11 12 11 11 11 11 10 10 10 10 10 10 10 9 9 9 9 9 9 9 8
16 15 15 15 14 14 14 14 13 13 13 13 13 13 13 13 12 12 12 12 12 12 12 12 12 12 12 11 11 11 11 10 10 10 10 9 9 9 9 9 9 8 8
16 16 15 15 15 14 14 14 14 14 13 13 13 13 13 13 13 13 12 12 12 12 12 12 12 12 12 12 12 11 11 11 11 10 10 10 9 9 9 9 9 8 8
Wind_Speed
6 6 6 7 7 8 8 8 8 8 8 9 9 9 9 9 8 7 5 3 2 2 1 2 4 4 5 6 6 6 6 5 5 3 2 2 4 6 7 9 11 12 12
4 5 6 6 7 7 8 8 8 8 8 8 8 8 9 9 9 8 6 5 3 2 2 1 1 2 5 5 5 6 6 6 5 5 3 3 3 6 7 7 7 9 9
3 5 5 6 6 6 6 7 7 7 7 8 8 8 8 8 8 8 6 5 4 2 1 1 1 1 2 3 4 5 5 6 4 5 4 3 3 4 6 6 6 5 7
2 3 4 5 5 5 5 6 6 6 7 7 7 7 7 7 8 8 7 5 4 3 2 1 1 1 1 2 3 4 5 6 5 6 5 4 3 5 6 7 6 5 6
2 2 3 3 4 5 5 5 5 6 6 6 6 7 7 7 8 8 6 5 4 3 2 2 1 2 2 2 3 4 5 5 5 6 6 4 5 6 7 5 8 8 6
2 1 2 3 4 5 4 4 5 5 5 5 6 6 7 7 13 13 8 4 4 3 2 2 2 3 3 3 5 5 5 5 6 5 4 6 6 6 6 9 10 9 5
2 1 1 3 4 4 4 4 4 5 5 5 6 6 7 9 14 14 11 5 4 3 2 1 2 3 4 4 4 5 3 4 6 6 6 6 7 8 10 10 10 7 5
2 1 1 2 3 3 4 4 4 3 4 4 5 6 6 9 14 14 11 6 5 5 4 2 3 3 3 4 5 5 4 3 2 4 5 6 6 8 10 9 11 10 9
3 2 2 2 2 2 3 4 3 3 4 4 3 4 6 8 13 13 10 5 4 5 5 4 3 3 4 5 5 5 5 4 4 5 6 6 10 14 14 12 12 13 8
4 3 3 3 2 0 2 3 3 3 4 4 3 3 5 6 12 13 10 4 4 4 4 5 6 4 4 5 4 5 5 3 4 5 6 7 8 12 16 12 13 13 8
5 4 3 3 3 2 2 3 3 3 4 4 4 4 5 7 10 13 10 4 3 3 3 4 4 5 6 7 5 4 4 4 5 6 6 6 7 7 7 6 7 10 8
6 5 4 4 3 1 1 2 3 4 4 5 4 4 4 6 8 10 12 9 5 3 2 2 3 5 6 6 5 6 8 7 6 6 6 6 6 6 7 7 9 8 6
6 5 5 4 3 2 1 0 2 3 3 3 3 3 4 5 6 11 11 10 8 3 2 2 4 6 6 5 7 8 7 6 6 6 6 5 5 6 8 7 8 10 12
7 7 5 5 4 3 2 2 1 0 1 2 2 3 4 4 5 6 6 6 6 4 3 4 6 7 6 6 6 5 5 5 5 6 6 5 5 6 7 6 6 7 7
7 7 6 6 5 4 3 3 3 3 3 2 2 2 2 3 5 9 6 4 4 2 2 3 3 3 4 4 4 4 4 4 5 4 5 6 6 7 5 4 4 4 4
6 6 5 5 5 5 4 3 5 5 6 5 5 3 3 5 8 8 8 7 4 3 4 3 3 3 3 3 4 3 3 4 4 5 5 5 5 5 5 4 4 5 5
7 7 5 5 6 5 5 5 4 4 6 7 7 6 6 6 7 7 7 6 5 5 5 3 3 3 3 3 3 3 3 3 3 5 5 5 5 5 5 5 5 5 5
8 8 7 6 6 6 6 6 5 4 4 4 6 8 8 7 7 6 4 3 4 4 3 3 2 3 3 3 3 3 3 4 4 4 5 5 5 5 5 5 5 5 5
8 6 6 6 6 6 6 5 5 6 5 4 3 4 6 5 5 4 0 2 2 1 1 1 1 2 2 3 3 4 4 4 4 4 4 5 5 5 5 5 5 7 5
8 11 9 7 6 6 6 6 6 5 5 5 6 5 3 2 2 2 1 2 2 2 2 2 2 2 2 3 3 4 4 4 5 4 4 4 4 5 6 6 6 5 4
8 8 11 7 6 7 6 7 7 6 6 6 7 7 9 5 6 5 4 4 4 4 4 4 3 3 3 3 3 5 6 5 5 5 5 5 5 4 4 5 5 5 4
8 8 7 7 7 7 7 7 6 6 7 8 6 6 12 6 6 6 6 6 6 5 5 5 4 4 4 4 4 5 5 5 5 5 5 5 5 5 5 4 4 4 5
9 9 8 7 7 9 8 7 7 7 7 8 7 6 7 7 7 7 7 7 6 6 5 5 5 5 4 5 5 5 6 6 6 7 7 6 6 5 5 4 5 5 5
11 11 10 8 8 7 7 8 7 8 8 8 8 8 9 9 9 9 8 7 7 7 6 6 6 8 9 7 7 8 8 8 9 9 9 8 7 6 5 4 5 6 6
12 12 11 10 9 8 8 8 8 8 8 8 8 8 9 9 9 9 8 8 9 9 9 8 8 9 11 12 11 11 11 11 11 11 11 6 8 7 6 5 5 5 5
13 13 12 10 9 9 9 9 9 9 9 8 8 8 9 10 10 10 9 8 9 9 9 8 11 13 14 15 16 16 15 14 13 13 12 7 7 7 7 5 7 6 5
Wind_Direction
351 353 359 359 2 9 13 12 14 18 24 28 26 26 24 19 12 16 16 33 70 84 111 188 208 199 205 207 201 194 192 181 186 185 171 157 156 159 154 156 166 174 185
351 7 4 2 6 13 13 12 18 22 20 24 24 25 22 18 12 14 12 16 35 56 63 77 158 182 200 200 196 195 193 184 176 171 164 154 155 164 153 146 151 164 167
13 19 10 6 8 10 10 13 19 22 20 20 22 19 13 9 9 7 6 10 17 23 43 60 47 110 173 186 186 187 187 181 169 161 161 150 133 144 137 131 126 119 134
45 33 17 1 4 8 12 17 17 18 21 15 13 8 1 358 3 3 2 8 11 21 33 39 51 105 159 174 178 179 173 167 160 154 146 137 129 135 137 135 124 113 110
93 45 11 2 10 16 19 16 14 13 17 7 8 4 358 359 1 359 355 1 5 16 28 33 44 94 136 148 158 160 159 159 158 155 149 140 144 148 150 142 134 122 104
132 79 21 28 26 20 16 16 12 2 356 1 5 1 1 2 0 7 8 6 5 16 30 25 30 43 67 91 132 148 152 157 165 162 159 160 161 153 142 144 141 138 127
148 128 64 55 40 21 18 17 1 348 348 350 352 356 352 345 4 10 16 21 18 21 38 50 57 59 55 54 81 103 121 152 164 162 166 171 164 160 151 152 150 139 125
144 135 114 84 54 22 14 357 338 330 336 337 345 352 350 354 8 13 19 24 29 28 33 48 71 67 61 69 78 79 69 66 136 164 168 168 162 158 154 145 135 115 108
158 163 155 137 88 20 353 332 322 328 329 326 329 349 355 348 4 12 20 12 27 26 28 40 71 82 82 90 87 87 77 59 69 105 122 132 146 147 140 133 135 137 134
189 188 176 168 155 291 314 314 318 323 324 331 353 2 2 352 0 11 18 19 30 31 27 28 44 71 82 94 96 99 91 68 80 90 92 103 122 142 146 149 150 148 140
193 180 177 191 207 238 294 317 330 349 3 10 20 15 8 360 359 8 18 25 32 48 40 22 16 58 83 86 87 88 98 98 90 95 98 103 108 119 126 125 137 149 145
192 189 201 217 232 207 300 347 4 20 28 20 21 9 354 352 357 5 20 33 48 69 48 13 14 64 85 84 84 90 90 88 86 88 93 99 108 113 116 112 106 97 95
199 209 219 224 231 218 185 89 23 23 29 12 14 359 339 342 352 7 13 20 31 47 28 37 56 71 77 72 84 88 82 83 88 89 90 85 84 101 106 102 91 89 85
205 219 219 214 221 224 206 177 150 345 349 346 349 341 333 338 348 351 351 356 7 23 30 55 66 70 70 71 76 76 72 82 95 97 94 87 84 92 100 106 109 104 93
208 216 215 209 204 206 209 210 206 221 210 216 250 274 314 330 323 332 339 336 329 333 69 68 67 68 71 68 74 82 81 83 89 92 100 101 100 100 94 87 100 95 99
204 214 212 205 202 200 206 235 255 245 249 238 231 235 263 276 306 332 346 354 6 91 94 84 81 85 95 102 104 92 89 99 102 109 110 112 114 113 104 88 92 107 113
202 208 205 200 198 199 202 211 242 267 259 262 263 264 264 285 309 331 347 19 43 87 92 97 102 112 118 122 125 121 119 122 117 120 122 122 120 117 117 117 114 111 112
204 206 197 199 201 202 205 208 209 217 245 266 263 255 260 277 299 321 347 61 45 48 88 108 113 120 127 132 136 132 127 126 121 125 128 130 129 129 131 137 141 140 137
201 201 200 200 204 207 208 207 209 212 216 229 243 266 256 268 294 310 35 122 145 137 125 126 136 135 135 137 140 140 141 141 140 136 137 139 139 134 141 150 154 154 143
204 207 195 197 203 208 210 211 215 215 213 213 218 224 212 195 235 251 215 192 188 194 191 182 177 168 155 147 146 144 140 142 145 143 148 149 149 148 155 159 161 162 167
201 206 203 198 204 207 209 214 219 216 214 216 222 214 188 191 210 213 210 208 207 204 201 196 189 177 167 156 153 156 155 158 160 157 155 155 152 151 157 160 165 166 161
197 199 197 202 209 213 216 215 215 217 218 220 223 215 200 200 206 209 212 214 212 209 201 192 192 191 183 176 170 166 168 171 173 167 163 161 159 155 152 154 160 165 167
197 199 201 207 211 220 223 219 215 216 217 216 209 200 195 206 211 213 216 215 208 205 200 193 193 199 201 194 186 176 178 187 187 176 169 167 167 166 163 167 171 167 177
200 202 204 206 208 212 217 221 219 217 215 212 208 206 208 210 213 215 215 213 208 206 199 196 197 202 201 199 196 194 194 197 194 189 178 174 175 174 171 174 179 183 185
202 205 206 207 208 212 217 221 222 221 219 216 211 210 212 213 216 218 214 209 206 208 208 204 206 207 209 207 203 203 203 199 195 192 185 173 178 179 178 180 180 179 179
205 207 209 208 208 209 213 218 222 221 221 220 217 213 211 212 215 216 212 206 207 210 211 209 212 211 212 213 214 211 207 203 200 196 187 176 177 183 182 187 188 185 184
Height
1524 1521 1517 1514 1511 1508 1505 1501 1499 1496 1493 1490 1487 1485 1483 1482 1480 1479 1478 1478 1478 1478 1479 1480 1481 1482 1485 1487 1490 1492 1496 1499 1502 1506 1510 1513 1516 1520 1523 1527 1530 1533 1537
1525 1521 1518 1515 1512 1509 1506 1503 1500 1497 1494 1491 1489 1487 1484 1482 1481 1479 1479 1478 1477 1477 1477 1477 1478 1479 1481 1483 1485 1487 1490 1494 1497 1500 1505 1508 1512 1516 1519 1523 1526 1530 1533
1525 1522 1519 1516 1513 1510 1507 1504 1501 1498 1495 1492 1490 1487 1485 1483 1481 1480 1479 1478 1478 1477 1476 1476 1476 1476 1478 1479 1481 1483 1486 1489 1493 1496 1500 1504 1508 1512 1516 1520 1523 1527 1530
1526 1522 1519 1516 1514 1511 1508 1505 1502 1499 1496 1493 1490 1488 1485 1483 1482 1480 1479 1478 1477 1477 1476 1476 1475 1475 1476 1477 1478 1480 1482 1485 1489 1492 1496 1500 1504 1509 1513 1516 1520 1524 1527
1526 1523 1520 1517 1514 1511 1508 1505 1502 1499 1496 1493 1490 1488 1486 1484 1482 1481 1479 1478 1478 1477 1476 1476 1475 1475 1475 1475 1476 1477 1479 1482 1485 1489 1493 1497 1501 1505 1509 1514 1517 1521 1525
1526 1523 1520 1517 1514 1512 1509 1506 1503 1500 1497 1494 1491 1489 1486 1484 1482 1481 1480 1478 1478 1477 1477 1476 1476 1475 1474 1474 1475 1476 1478 1480 1483 1486 1489 1493 1497 1501 1506 1510 1514 1519 1523
1525 1523 1520 1518 1515 1512 1509 1506 1504 1501 1498 1495 1492 1489 1487 1484 1482 1481 1480 1479 1478 1477 1477 1476 1476 1475 1475 1475 1475 1476 1478 1480 1482 1485 1487 1491 1495 1498 1503 1508 1512 1516 1520
1525 1523 1520 1518 1515 1512 1509 1507 1504 1502 1499 1496 1494 1491 1488 1485 1483 1481 1480 1479 1478 1478 1477 1477 1477 1476 1476 1476 1476 1477 1478 1480 1482 1484 1487 1490 1493 1497 1501 1506 1510 1515 1519
1525 1522 1520 1518 1515 1512 1510 1507 1505 1502 1500 1497 1495 1492 1489 1486 1483 1481 1480 1479 1478 1478 1477 1477 1478 1478 1478 1478 1478 1478 1479 1481 1483 1485 1486 1489 1492 1496 1499 1504 1508 1512 1517
1524 1522 1520 1518 1515 1513 1510 1508 1505 1503 1500 1498 1495 1492 1489 1486 1484 1482 1480 1480 1479 1478 1478 1478 1479 1479 1479 1480 1480 1480 1481 1482 1484 1485 1487 1490 1492 1495 1499 1503 1507 1511 1515
1524 1522 1520 1518 1516 1513 1511 1508 1505 1503 1500 1498 1495 1492 1490 1487 1484 1482 1481 1481 1480 1479 1479 1479 1480 1480 1481 1482 1482 1483 1483 1484 1485 1487 1489 1491 1493 1496 1499 1503 1507 1511 1515
1523 1522 1520 1518 1516 1514 1511 1508 1506 1503 1500 1497 1495 1493 1490 1487 1485 1483 1482 1481 1481 1481 1480 1481 1481 1482 1483 1484 1485 1485 1486 1487 1487 1489 1490 1492 1494 1497 1500 1504 1507 1512 1516
1522 1521 1520 1518 1516 1514 1512 1509 1506 1503 1500 1497 1495 1493 1490 1488 1486 1484 1483 1483 1482 1482 1482 1482 1483 1484 1486 1487 1488 1488 1489 1490 1490 1492 1493 1495 1497 1499 1502 1505 1509 1513 1516
1521 1520 1518 1517 1516 1514 1512 1510 1507 1504 1501 1498 1496 1493 1491 1489 1487 1486 1485 1484 1484 1483 1484 1484 1485 1486 1488 1489 1490 1491 1492 1493 1494 1496 1497 1498 1500 1502 1505 1508 1511 1514 1517
1519 1518 1517 1516 1514 1513 1512 1510 1508 1505 1502 1500 1497 1495 1492 1490 1489 1487 1486 1486 1486 1485 1486 1487 1488 1489 1490 1491 1492 1494 1495 1497 1498 1500 1501 1502 1504 1506 1508 1511 1514 1516 1518
1516 1515 1514 1514 1513 1512 1511 1509 1508 1506 1503 1501 1498 1496 1494 1492 1490 1489 1488 1488 1488 1488 1489 1489 1490 1491 1492 1494 1495 1497 1498 1500 1502 1503 1505 1506 1508 1510 1512 1514 1516 1518 1520
1513 1512 1511 1511 1510 1510 1509 1508 1507 1505 1503 1501 1499 1497 1495 1493 1492 1491 1490 1490 1490 1490 1491 1491 1492 1493 1494 1496 1497 1499 1501 1503 1504 1506 1508 1509 1511 1512 1514 1515 1517 1518 1520
1510 1509 1508 1508 1508 1507 1507 1506 1505 1504 1503 1501 1500 1498 1496 1494 1493 1492 1491 1491 1491 1491 1492 1493 1493 1495 1496 1497 1499 1501 1502 1504 1506 1508 1509 1511 1512 1514 1515 1516 1517 1518 1519
1505 1505 1505 1504 1504 1504 1504 1503 1503 1502 1501 1500 1499 1498 1496 1495 1494 1493 1492 1492 1492 1492 1492 1493 1494 1495 1497 1498 1500 1501 1503 1505 1506 1508 1510 1511 1513 1514 1515 1516 1517 1518 1519
1500 1500 1500 1500 1500 1500 1500 1500 1500 1500 1499 1498 1498 1497 1496 1494 1493 1493 1492 1492 1492 1492 1492 1493 1494 1495 1497 1498 1500 1501 1503 1505 1506 1508 1510 1511 1512 1513 1514 1515 1516 1517 1518
1495 1495 1495 1495 1495 1495 1496 1496 1496 1496 1496 1496 1495 1495 1494 1493 1492 1492 1491 1491 1491 1492 1492 1493 1494 1495 1496 1498 1499 1501 1502 1504 1506 1507 1509 1510 1511 1512 1513 1513 1514 1515 1516
1488 1489 1489 1489 1490 1490 1491 1491 1492 1492 1492 1492 1492 1492 1492 1491 1491 1490 1490 1489 1490 1490 1491 1492 1492 1494 1495 1496 1498 1499 1501 1502 1504 1505 1506 1508 1509 1509 1510 1511 1511 1512 1513
1481 1481 1482 1483 1484 1484 1485 1486 1486 1487 1487 1488 1488 1488 1488 1488 1488 1488 1488 1487 1487 1488 1488 1489 1490 1491 1492 1494 1495 1497 1498 1499 1501 1502 1503 1504 1505 1506 1507 1507 1508 1508 1509
1472 1473 1474 1475 1476 1477 1478 1479 1480 1481 1482 1483 1483 1484 1484 1485 1485 1485 1485 1485 1485 1485 1485 1486 1487 1488 1489 1490 1491 1493 1494 1496 1497 1498 1499 1500 1501 1502 1503 1503 1504 1505 1506
1463 1465 1466 1467 1468 1470 1471 1472 1473 1475 1476 1477 1478 1478 1479 1480 1481 1481 1482 1482 1482 1482 1482 1483 1483 1484 1485 1486 1487 1488 1490 1491 1492 1493 1495 1496 1497 1497 1498 1499 1500 1501 1502
1454 1455 1457 1458 1460 1461 1463 1464 1465 1467 1469 1470 1471 1472 1473 1475 1476 1477 1477 1478 1478 1478 1479 1479 1479 1480 1481 1482 1483 1484 1484 1486 1487 1488 1489 1490 1491 1492 1493 1494 1495 1496 1497